Wind_Speed
8 8 9 12 13 12 12 12 12 11 11 10 10 11 11 11 11 11 11 11 11 12 13 13 12 9 6 5 4 3 3 2 2 2 2 3 3 3 3 4 4 5 6 8 9 9 11 12 11 11 10 9 9 9 9 9 9 8 8 8 7 7 7 6 7 7 8 9 10 11 12 14 15 15 13 12 12 12 13 13 13 13 13 13 13
7 8 8 10 12 11 11 11 11 10 9 9 9 9 10 10 10 10 10 10 11 12 13 13 13 11 7 5 4 3 2 2 1 1 1 2 2 3 2 3 4 5 6 7 9 10 11 11 10 10 9 9 8 8 8 8 7 8 8 8 8 8 7 7 8 9 10 12 14 13 13 15 16 16 15 14 13 13 13 12 13 13 13 13 13
10 8 7 8 10 11 10 11 10 9 8 8 8 8 8 8 8 9 9 10 11 12 13 13 13 12 9 6 4 3 2 1 1 1 0 1 2 2 3 3 3 5 6 7 8 10 10 10 9 9 9 8 7 7 7 7 7 7 9 9 9 9 8 8 9 9 10 13 15 14 14 16 16 16 16 15 14 14 14 14 14 14 14 14 14
12 9 7 6 9 10 10 10 9 9 8 7 7 7 7 7 7 7 7 8 10 11 13 13 13 12 11 7 5 3 2 1 1 2 1 1 1 2 3 3 3 5 6 6 8 9 9 9 8 8 8 7 6 6 6 6 6 7 8 9 9 9 9 8 8 8 9 12 14 15 15 16 16 17 17 16 15 16 16 17 17 17 17 17 16
12 11 8 6 7 9 9 9 8 8 7 6 6 6 6 6 6 6 6 7 8 10 11 12 13 12 11 9 5 3 3 2 2 2 2 1 1 2 3 3 4 5 6 7 7 9 9 8 8 8 7 6 5 5 5 5 6 7 8 9 9 9 10 9 9 9 9 12 13 14 16 16 16 17 16 16 16 17 17 18 19 19 19 18 17
12 12 10 8 6 8 9 8 8 7 6 5 5 4 4 5 5 5 5 6 7 8 10 11 12 12 11 9 6 3 3 3 3 3 2 2 1 2 3 3 4 5 6 7 8 9 9 8 7 7 6 5 5 5 5 5 6 7 8 9 10 11 11 10 10 10 10 12 13 14 15 16 16 16 15 16 17 17 18 19 20 19 18 18 18
13 13 12 10 8 8 8 8 7 6 5 5 4 3 3 4 4 4 5 5 6 6 8 9 10 11 10 10 7 4 2 2 3 3 3 2 2 2 3 4 5 6 7 8 8 8 8 8 7 6 5 4 4 4 4 5 5 6 7 8 10 11 11 11 11 10 11 12 13 14 15 16 17 16 15 16 18 18 19 19 19 19 18 18 18
12 14 14 13 11 10 10 8 7 6 5 4 3 3 2 2 3 3 4 5 5 5 6 7 8 9 9 9 8 5 2 2 2 3 3 3 2 2 3 4 5 6 7 8 8 8 8 7 7 5 4 3 3 3 3 4 5 6 7 9 9 10 11 11 11 10 10 11 13 13 15 17 17 15 15 17 18 19 19 19 19 18 18 18 19
11 13 14 15 13 12 11 10 8 7 6 4 3 2 1 0 2 3 3 4 5 4 4 5 7 8 8 9 9 6 3 1 2 2 3 3 3 3 3 4 5 6 7 8 8 8 8 7 6 4 3 3 2 2 3 4 6 7 8 9 10 10 10 10 10 9 9 11 12 13 15 16 15 15 15 17 18 18 18 18 18 19 19 20 20
9 12 13 15 15 14 13 12 10 8 7 6 5 3 3 2 2 3 3 4 4 4 4 4 5 6 7 8 8 7 4 1 1 2 3 3 3 3 4 4 5 6 7 8 8 8 8 7 5 4 3 2 0 1 3 4 6 7 8 9 10 10 10 9 8 8 9 10 12 13 15 15 15 14 15 16 17 17 18 18 19 19 20 20 20
8 10 12 14 15 15 15 13 12 10 9 7 6 5 5 4 4 4 4 4 4 4 4 3 4 4 6 7 7 7 5 2 1 2 3 3 4 3 4 5 5 6 7 7 7 7 7 6 5 4 2 1 1 2 3 4 5 6 7 8 9 10 10 9 8 8 8 9 11 13 14 13 13 14 15 15 16 17 18 19 19 20 20 20 21
7 8 10 12 13 15 15 15 14 13 11 9 8 7 7 6 6 6 5 5 5 5 5 3 3 3 4 6 6 7 6 4 1 2 3 3 4 4 4 5 5 5 6 7 7 7 7 6 5 4 2 2 2 3 4 5 5 6 7 8 9 9 10 9 9 9 9 11 12 13 13 12 12 13 14 15 16 17 18 19 19 20 21 21 22
5 6 7 9 11 14 15 16 16 15 13 11 10 9 8 8 7 7 6 6 6 6 6 4 3 3 3 4 5 6 6 5 2 1 3 3 4 5 5 5 5 5 6 6 7 7 7 6 5 4 3 3 4 4 4 5 5 6 7 7 8 9 9 9 9 9 11 12 12 12 12 12 12 13 14 15 16 17 18 19 20 21 21 22 22
4 5 5 7 9 12 15 16 16 16 15 13 12 11 10 10 9 8 7 7 7 7 7 5 4 3 3 3 4 4 5 5 3 1 2 3 4 5 6 6 6 6 6 6 7 7 7 6 6 5 4 4 5 5 5 5 5 6 7 8 8 8 8 8 8 9 10 12 12 12 12 11 12 13 14 15 16 17 18 19 19 20 21 21 20
4 4 4 5 6 8 12 14 16 16 15 14 13 12 11 11 10 9 8 8 7 8 7 6 5 4 4 4 3 3 4 5 4 2 2 3 3 4 5 6 6 6 6 6 7 7 7 7 6 6 5 5 6 6 5 4 5 6 7 8 8 8 9 8 8 10 11 11 12 11 10 10 11 12 13 15 16 17 18 19 19 19 19 19 19
5 3 2 3 4 5 8 11 13 15 16 15 14 13 12 12 11 10 9 9 8 8 8 7 6 5 5 4 3 2 2 3 4 3 2 3 3 3 4 5 5 6 6 6 7 7 7 7 7 6 6 6 6 6 5 4 5 6 8 8 9 9 9 9 9 10 11 11 10 9 9 9 10 12 13 15 16 17 18 19 19 19 18 18 19
4 3 3 2 2 4 5 8 10 13 14 14 13 13 12 12 11 10 10 9 9 9 8 8 7 6 5 5 4 3 2 2 3 3 2 2 3 3 3 4 5 6 6 7 7 8 8 7 7 7 7 7 7 7 6 5 5 6 8 8 9 10 10 10 10 11 11 10 9 8 8 9 11 12 14 15 16 17 18 19 19 19 19 19 19
4 3 3 2 2 2 3 5 8 10 11 12 12 12 12 12 11 10 10 10 10 10 9 8 8 8 6 5 5 4 3 2 2 2 2 1 2 2 3 4 5 6 6 7 7 8 8 8 7 8 8 7 7 7 6 6 6 7 7 8 9 10 10 9 10 10 10 9 8 8 9 10 12 13 14 15 16 18 19 19 19 20 20 20 20
5 4 3 2 2 2 2 3 5 7 9 10 11 11 11 11 11 11 11 11 11 10 10 9 9 8 7 6 5 5 4 3 2 2 2 1 1 2 2 3 4 6 6 7 8 8 8 8 8 8 8 8 8 7 6 6 7 7 7 8 9 10 10 9 10 10 9 9 8 9 10 11 12 13 14 15 17 18 18 19 20 20 20 20 20
5 4 3 1 2 3 3 2 3 6 8 10 11 11 11 12 12 12 12 12 12 11 10 10 10 9 8 7 6 6 5 4 3 3 2 2 1 1 2 3 4 6 6 7 8 8 8 8 8 9 9 9 9 8 7 7 8 8 8 8 9 10 10 9 9 9 8 8 9 9 10 11 12 13 15 16 17 18 18 19 20 20 20 20 20
6 4 3 1 1 3 4 3 1 4 7 8 10 11 11 12 12 13 13 13 13 11 10 11 10 9 9 8 7 6 6 5 5 5 4 3 2 2 2 4 5 5 6 7 7 8 9 9 9 9 10 10 9 8 7 8 8 8 8 9 9 9 9 9 9 8 8 8 9 9 10 11 13 14 16 17 17 18 18 18 19 20 20 20 20
8 6 4 2 0 2 4 3 1 2 4 6 8 9 10 11 12 13 13 14 14 12 11 12 11 10 9 8 7 7 6 6 5 6 5 5 4 3 3 4 5 6 6 7 7 8 9 9 9 10 11 11 10 8 8 9 9 8 8 9 10 9 9 8 8 8 7 7 8 9 10 12 14 16 18 18 18 19 18 18 19 19 19 19 19
10 8 5 3 1 1 2 3 1 1 3 4 6 7 9 10 12 13 14 15 14 13 12 12 12 10 10 9 8 7 7 6 6 6 6 6 6 5 5 5 6 7 7 8 8 8 9 10 10 11 12 11 10 9 9 9 9 8 8 9 10 9 8 8 7 7 6 7 8 9 11 14 15 17 18 18 19 19 19 19 19 19 18 18 18
10 8 6 4 2 0 1 2 2 0 1 3 4 6 7 9 11 13 14 15 14 14 13 13 12 10 10 10 9 8 7 7 7 7 7 7 7 7 7 7 7 8 9 9 9 9 10 11 11 12 12 12 11 9 9 9 8 8 8 9 10 9 8 7 7 6 7 7 9 11 13 14 16 17 18 18 18 18 18 19 19 18 18 18 18
10 9 7 5 3 1 1 1 1 1 0 1 3 5 6 7 9 12 14 14 14 14 14 13 11 10 10 10 9 8 8 7 7 7 8 8 8 8 8 8 8 9 9 10 10 11 11 12 12 12 13 13 11 9 8 8 8 7 8 9 9 8 7 7 7 7 7 9 10 12 14 15 16 17 18 18 18 18 18 18 18 18 18 18 19
10 10 9 7 5 3 2 2 1 1 1 1 2 3 4 5 8 10 12 13 14 14 14 13 11 11 11 10 9 8 8 8 8 8 8 8 9 9 9 9 9 9 9 10 11 11 12 13 13 13 13 13 11 9 8 8 7 8 8 8 8 7 7 7 8 8 8 10 12 13 14 15 16 16 17 18 17 17 18 18 18 18 18 19 20
11 11 10 9 7 5 4 4 2 1 1 1 1 2 3 5 7 9 11 12 12 13 13 12 11 11 11 11 9 9 9 9 9 9 9 9 9 9 9 9 9 9 9 10 11 12 13 14 14 13 13 12 10 9 9 8 7 8 8 7 7 7 7 8 8 8 9 11 13 14 14 15 16 16 16 17 17 17 18 18 17 17 18 19 21
14 13 11 10 8 7 7 6 4 3 1 1 0 2 3 4 6 7 8 9 10 12 12 11 11 11 12 11 9 9 9 10 10 9 9 9 9 9 9 10 10 9 9 10 10 12 13 14 14 13 13 12 10 10 9 8 8 8 7 6 6 7 8 8 8 9 11 12 13 14 15 15 16 16 16 16 17 17 17 17 17 18 20 21 22
16 14 12 10 9 8 9 8 7 5 2 1 0 2 3 4 5 6 7 7 8 10 10 10 10 11 12 11 10 10 10 10 10 10 9 10 10 9 10 10 10 9 9 10 11 12 13 13 13 13 12 11 10 10 9 8 8 8 6 6 6 7 8 8 9 10 11 13 14 14 15 15 15 15 15 15 16 17 17 16 17 19 21 22 23
16 14 12 10 9 9 10 10 8 6 4 1 1 2 3 4 5 6 5 5 6 7 7 8 9 10 11 11 10 11 11 11 10 10 9 10 10 10 10 10 10 10 10 10 11 12 12 13 12 12 11 11 10 9 9 9 9 8 7 6 6 8 9 9 10 11 12 14 14 15 15 15 15 14 14 14 15 16 17 18 19 20 21 22 23
15 13 11 10 10 9 10 10 9 7 6 3 1 2 3 4 5 5 5 5 4 4 5 6 7 10 11 10 11 11 11 11 11 10 10 10 10 10 10 10 10 10 10 10 11 11 12 12 12 11 11 11 9 8 9 9 9 8 8 7 7 8 9 10 11 12 13 14 14 15 16 15 15 14 13 13 14 16 17 18 20 21 22 23 23
11 9 10 9 9 9 8 9 9 8 7 4 2 1 3 4 4 5 5 4 3 3 5 5 7 9 10 10 11 11 11 11 11 10 10 10 10 10 11 11 11 11 11 10 11 11 12 12 12 11 11 11 9 8 9 9 9 8 8 8 8 9 9 10 11 12 13 14 15 15 15 15 14 13 13 14 15 16 18 19 20 21 22 23 24
9 8 10 8 7 7 7 8 8 8 7 6 4 2 2 4 4 4 4 4 3 4 5 5 7 9 9 10 11 11 11 11 11 10 9 10 11 11 11 12 11 11 11 11 11 12 12 12 12 11 11 11 9 8 8 9 8 8 8 8 8 9 9 10 12 12 12 13 14 15 15 14 14 14 14 14 16 17 18 20 21 22 23 24 25
11 9 9 8 7 6 6 6 6 6 7 7 5 4 3 4 4 4 3 3 4 4 5 6 8 8 9 10 11 11 12 11 11 10 9 10 11 11 12 12 12 11 11 11 12 12 12 12 12 11 11 11 9 8 9 9 8 8 8 8 8 9 9 10 11 11 12 13 14 14 14 13 13 14 14 15 16 17 19 20 21 22 23 24 25
14 11 7 7 7 6 5 5 5 6 7 7 7 6 5 5 4 4 4 4 4 4 5 7 8 9 10 11 11 11 12 12 10 10 10 11 12 13 13 12 12 11 11 12 12 12 12 12 12 12 12 11 10 9 9 9 7 8 8 8 8 9 10 10 10 11 13 13 13 13 12 12 13 13 14 15 16 18 19 20 22 22 23 24 24
15 11 8 9 8 7 6 5 6 7 7 7 8 8 7 6 6 5 5 5 4 4 5 7 9 10 10 10 11 11 11 12 10 10 11 13 14 14 14 13 12 12 12 12 12 12 13 13 13 13 12 11 10 10 9 8 7 8 9 8 8 9 10 10 11 12 13 13 12 12 12 12 12 13 14 15 17 18 20 21 22 22 23 24 24
16 13 10 9 9 8 7 6 8 9 8 8 8 9 8 8 8 7 7 6 5 4 5 7 9 10 10 10 10 11 11 11 10 11 13 14 14 14 14 13 12 12 13 13 12 13 13 13 13 13 13 12 9 9 9 8 7 8 8 8 8 9 10 11 12 13 13 12 12 12 12 12 12 13 14 16 17 19 20 21 21 22 23 23 24
18 15 12 10 10 10 8 9 10 9 9 9 9 9 9 9 10 10 9 8 6 4 5 7 8 10 10 10 10 11 11 11 11 13 14 14 14 14 14 13 12 12 14 13 13 13 14 14 13 13 14 12 9 8 8 8 8 8 8 8 8 10 11 11 13 13 13 12 12 12 12 12 12 13 15 16 18 20 20 21 21 22 23 23 24
21 18 14 12 13 12 11 11 10 9 9 10 10 9 10 11 11 12 11 9 7 5 5 6 8 10 10 11 11 11 11 11 12 14 14 13 13 14 14 13 12 13 14 14 13 14 14 15 14 12 13 12 9 8 8 8 9 8 8 8 9 10 11 12 13 13 13 12 12 12 12 12 13 14 15 17 18 20 20 21 22 22 23 24 24
23 21 17 15 15 14 14 13 10 10 11 12 12 11 11 12 12 13 12 9 7 5 5 7 9 10 11 11 11 11 11 12 13 13 13 13 13 13 14 13 13 13 14 14 14 14 15 15 14 12 12 11 9 9 9 9 9 8 8 9 10 11 11 12 13 13 12 13 13 13 13 13 14 15 16 17 19 20 20 21 22 23 24 24 24
26 24 19 16 16 18 17 14 12 12 13 14 14 13 11 12 13 13 12 11 9 6 5 7 9 11 12 12 11 11 11 12 13 13 13 13 13 13 13 13 13 13 14 14 14 14 15 15 14 12 11 10 9 10 10 9 8 8 9 10 10 11 12 12 13 13 13 13 13 14 14 14 15 16 16 18 19 20 21 22 23 24 24 24 24
29 25 20 17 18 19 18 16 14 14 14 14 14 13 11 11 13 14 13 13 10 8 7 8 10 12 13 13 12 12 12 13 14 14 14 14 13 13 13 13 13 14 14 15 15 15 15 14 13 12 10 10 10 10 9 8 8 8 10 11 11 11 12 13 13 13 12 13 14 15 15 15 16 17 18 19 20 21 21 23 24 25 25 25 25
31 27 23 20 20 19 19 18 16 13 14 14 14 12 10 11 13 13 14 14 12 10 10 10 11 13 13 13 13 12 13 13 14 15 15 14 14 13 13 13 14 14 15 16 16 15 15 14 14 12 10 10 10 10 9 8 8 9 11 11 11 12 12 12 13 13 12 13 14 15 16 16 17 18 20 20 21 22 23 24 25 26 26 26 26
33 30 27 23 21 20 20 20 16 13 13 13 12 11 10 11 11 13 15 16 15 14 12 12 12 12 13 13 12 13 13 14 14 15 15 15 14 14 13 14 14 15 16 16 16 16 15 15 14 12 10 10 10 10 10 9 10 11 12 12 11 12 12 13 13 13 12 13 14 15 16 17 18 19 21 22 23 23 24 25 26 27 28 27 27
35 32 28 25 23 22 22 20 15 13 14 13 12 11 11 12 13 14 15 16 16 15 13 11 11 11 12 12 12 13 14 15 15 15 15 15 15 15 14 15 15 16 16 17 17 17 17 16 15 12 11 11 11 11 10 10 11 11 12 12 12 12 13 13 14 13 13 13 14 15 17 17 19 20 22 23 23 24 25 26 27 28 28 28 28
34 31 29 28 26 25 23 20 17 15 15 15 14 13 14 15 17 16 16 16 16 15 13 12 12 13 14 14 15 15 15 15 16 16 15 15 15 15 15 15 16 17 17 18 18 18 17 17 16 13 12 12 12 11 11 12 12 11 12 12 13 13 14 14 14 14 14 14 14 16 17 18 19 21 22 23 24 25 26 27 27 28 29 28 28
34 30 30 30 28 27 25 21 18 16 17 17 16 15 16 17 17 17 16 16 16 16 15 14 14 15 17 17 17 17 16 16 16 16 15 14 14 15 15 16 17 18 18 18 18 17 16 17 17 15 13 12 12 12 12 13 13 12 12 13 13 14 14 14 14 14 15 14 15 16 18 19 20 21 23 23 24 25 26 27 28 28 29 28 28
36 34 33 31 30 30 26 23 20 19 18 17 16 16 16 18 18 18 17 16 16 16 16 15 15 17 18 18 18 17 16 16 15 15 14 14 14 14 16 16 17 19 19 19 19 17 16 16 16 15 14 13 12 13 14 14 13 12 13 13 14 14 14 14 14 14 15 15 16 17 18 20 21 22 23 23 24 25 26 27 27 28 29 28 27
37 37 35 34 34 33 29 25 23 21 20 18 16 16 17 19 20 20 19 17 17 17 18 18 17 18 18 18 18 17 16 15 14 14 13 13 14 15 16 17 18 19 20 20 18 15 15 15 16 15 14 14 14 14 14 13 13 13 13 13 14 14 14 14 14 14 15 16 17 17 19 20 21 22 23 23 24 25 25 26 27 28 28 28 27
33 36 38 39 37 36 31 27 24 22 21 19 18 18 19 20 22 21 19 17 17 18 19 19 17 18 18 17 17 16 15 14 13 13 13 13 14 16 17 18 19 20 20 20 17 14 15 16 16 15 15 14 13 13 13 13 13 13 14 14 14 14 14 15 15 15 15 16 17 18 19 21 22 22 22 23 24 24 25 26 27 27 27 27 26
31 34 40 42 39 37 32 28 26 24 22 22 21 20 21 22 23 22 20 18 18 18 19 19 17 17 17 16 16 15 14 14 14 14 13 13 14 16 18 18 20 20 20 19 16 15 16 17 17 16 15 15 13 13 14 14 14 14 14 14 15 15 15 15 15 16 16 16 17 18 19 21 22 22 22 23 24 24 25 25 26 26 27 26 24
Wind_Direction
180 161 146 132 129 125 117 112 106 102 97 90 82 76 73 70 65 58 52 46 42 39 37 35 34 36 47 55 50 34 20 31 55 58 71 99 122 137 130 128 133 135 130 130 134 131 128 130 131 130 127 120 110 103 95 88 83 77 69 60 55 54 53 46 39 34 25 15 6 5 9 10 5 3 8 14 22 30 34 36 34 32 30 29 30
195 172 157 140 134 133 123 119 113 108 102 95 86 79 74 71 68 61 54 48 44 40 38 35 33 33 39 52 55 44 14 357 2 34 63 88 128 150 148 143 140 138 133 132 135 134 133 136 136 132 126 117 110 103 93 87 84 76 66 56 46 39 35 28 23 21 17 10 5 6 8 7 1 358 4 12 19 26 31 36 37 36 33 32 31
193 184 171 151 140 142 133 126 120 114 107 99 91 82 76 70 68 61 54 48 45 41 38 36 33 30 31 41 50 54 39 343 251 230 147 86 126 157 161 158 151 142 137 136 138 138 139 140 139 133 124 117 111 100 90 84 81 74 67 59 44 30 23 17 11 8 7 5 3 4 5 4 359 356 2 11 18 22 25 28 31 32 31 31 29
191 194 190 170 151 150 144 136 128 120 113 103 94 85 80 71 64 57 51 44 44 42 39 37 34 31 28 30 39 48 56 111 187 202 185 144 148 164 170 165 158 150 142 142 144 142 144 146 142 135 127 121 113 97 87 81 76 71 68 61 47 33 24 18 10 4 359 1 4 5 4 2 358 356 1 11 18 21 24 25 25 25 24 25 25
191 196 201 198 169 159 154 147 139 130 121 111 99 87 83 73 62 51 43 36 38 41 38 36 34 32 28 27 31 42 63 112 153 176 167 172 184 166 167 165 161 157 147 147 150 148 151 153 147 138 132 126 111 95 86 76 69 64 63 55 42 31 27 27 19 11 2 0 4 6 4 2 359 358 3 13 21 22 24 26 25 24 22 21 22
193 196 203 210 192 170 166 160 151 143 133 123 109 93 84 75 63 45 33 26 28 35 36 35 33 32 29 25 26 40 70 115 144 157 154 158 184 172 161 162 163 160 151 153 156 156 158 157 151 144 137 127 108 94 83 70 62 55 52 48 40 30 26 28 23 13 4 1 2 3 4 2 359 360 8 18 23 25 27 28 27 26 24 23 24
194 196 203 212 209 189 180 177 167 160 152 140 126 109 88 74 62 41 25 13 14 23 31 32 31 30 28 25 23 34 69 114 145 153 154 151 154 167 163 162 164 161 156 159 163 163 163 161 156 150 143 124 106 91 75 65 58 47 40 37 36 32 27 26 20 10 0 360 360 360 4 2 359 1 14 24 25 28 28 29 29 28 27 26 28
200 198 203 209 215 205 195 194 187 179 174 166 152 136 112 68 52 32 16 3 357 5 19 26 27 26 26 24 23 28 49 94 139 156 159 153 146 158 163 163 163 162 161 162 166 168 167 165 163 157 146 123 105 80 58 55 50 39 30 26 27 28 27 24 17 7 357 357 357 358 4 2 360 5 19 27 28 30 29 29 30 29 28 26 27
210 206 206 208 215 214 207 204 204 201 196 192 188 181 198 343 21 9 2 352 340 342 358 13 21 21 21 21 22 26 34 68 119 154 162 155 148 156 162 159 158 161 162 163 166 170 171 170 171 165 150 127 99 53 35 40 41 31 22 18 19 21 22 19 11 4 355 355 356 360 5 3 4 11 24 29 29 30 28 27 27 26 25 23 22
213 214 214 214 216 217 216 212 212 214 215 213 215 223 238 272 315 336 342 334 321 317 327 352 11 15 14 16 22 27 31 53 104 139 153 154 151 159 164 159 155 161 164 166 170 173 174 177 179 174 159 135 76 355 9 25 31 25 16 14 13 13 14 11 5 359 353 354 358 3 5 5 8 16 27 29 28 27 25 24 23 21 19 18 17
208 216 219 221 221 219 219 217 218 220 224 226 229 240 248 269 292 308 319 312 300 293 298 320 348 7 8 7 20 28 30 42 87 123 138 150 155 161 166 165 162 167 170 171 174 177 180 184 190 188 181 194 281 318 347 9 20 18 12 12 9 5 4 2 360 358 355 357 0 5 5 8 14 20 26 28 27 25 22 20 19 18 15 14 12
201 214 220 225 228 225 223 221 223 224 227 231 236 245 254 268 284 295 301 296 284 275 277 289 316 348 359 357 13 29 31 37 64 114 132 145 156 164 168 168 172 175 175 175 177 182 187 192 202 206 209 241 279 305 333 356 6 10 9 8 4 360 358 355 355 357 0 2 3 5 6 13 20 23 25 24 25 23 20 18 15 14 13 11 9
192 209 218 226 230 231 229 227 228 228 230 234 240 247 256 268 280 289 290 285 276 267 265 271 290 315 337 343 2 27 33 36 54 114 129 144 160 169 172 172 176 181 180 180 183 188 194 202 213 222 230 256 280 299 324 346 354 0 5 2 358 356 354 351 350 356 2 3 4 4 8 17 21 22 22 19 20 20 17 15 13 11 10 9 7
179 196 211 224 228 232 232 231 232 232 234 236 241 248 256 267 277 283 282 277 272 264 259 262 274 288 305 316 344 20 33 37 49 101 132 141 162 176 179 179 181 185 186 185 189 194 200 213 226 236 246 264 280 298 318 338 345 351 358 355 351 349 348 347 347 357 3 3 4 5 11 18 20 19 18 17 17 17 15 12 12 9 8 5 3
173 181 200 221 224 228 229 231 233 234 237 239 242 248 255 266 274 278 276 272 267 261 256 256 262 268 281 291 314 359 25 37 43 68 131 141 159 181 184 184 188 191 192 193 196 201 209 220 233 246 257 271 283 297 311 330 341 344 349 347 343 341 340 342 347 358 1 1 3 5 12 17 17 16 13 16 14 12 12 9 8 7 5 2 359
169 160 170 210 216 218 221 224 230 234 237 240 243 248 256 265 271 273 269 266 261 257 253 250 253 257 265 275 286 317 0 29 39 50 110 143 156 176 189 190 193 198 201 203 207 210 217 226 238 251 262 275 285 294 304 325 338 340 342 339 336 336 336 341 349 357 358 358 0 5 12 14 13 12 9 11 9 7 7 5 4 3 1 359 357
160 146 139 154 189 195 203 210 218 228 235 240 245 249 257 265 268 267 262 260 256 253 250 246 246 248 253 261 270 279 304 359 30 38 70 134 152 166 186 199 201 205 208 211 218 221 226 234 244 256 265 274 282 290 301 321 331 334 334 332 332 333 334 343 353 355 355 355 0 7 11 10 8 7 5 5 4 3 2 0 1 360 358 357 356
162 145 131 124 125 149 176 191 204 216 229 238 245 251 257 263 263 260 257 255 252 250 247 244 243 242 245 251 258 263 269 297 345 14 36 89 142 160 182 204 212 213 216 220 227 230 235 241 249 259 265 272 278 286 300 316 323 325 326 329 330 329 332 344 354 352 352 356 1 6 7 5 3 1 359 359 359 358 357 356 358 358 356 355 354
175 158 136 117 91 80 107 162 188 204 220 232 239 246 251 255 254 253 252 251 249 248 245 243 242 239 240 243 249 254 256 267 290 317 357 29 109 165 192 211 222 223 227 231 237 239 242 247 253 259 264 270 276 285 300 313 314 317 322 327 326 325 332 344 351 349 350 355 359 3 3 360 356 354 353 354 354 354 354 354 355 355 354 352 352
187 173 159 136 78 61 59 97 169 198 214 224 231 237 241 244 245 246 247 248 247 245 245 243 241 238 237 238 241 247 251 254 265 278 300 330 349 230 222 225 231 233 237 241 246 247 249 254 257 261 266 272 278 287 300 306 307 313 319 322 324 328 336 344 346 344 348 356 360 359 355 352 349 349 349 350 351 351 354 354 352 351 350 350 349
211 204 184 184 67 55 45 50 121 195 214 222 230 234 237 240 241 243 243 245 245 243 243 243 240 237 236 235 237 242 249 252 253 262 271 283 300 292 261 245 243 245 247 249 251 253 255 259 262 265 271 275 281 290 297 299 301 309 314 317 323 331 336 340 341 341 350 358 358 351 346 347 346 347 348 348 348 350 353 352 350 348 347 347 348
226 224 213 219 268 48 40 35 56 190 210 218 228 235 237 239 239 241 242 242 243 242 241 242 240 236 236 234 235 239 246 251 250 254 261 267 277 282 272 260 256 256 256 256 255 256 259 262 264 269 273 278 284 289 293 293 297 306 308 313 321 329 334 337 340 341 348 350 347 344 343 347 347 346 347 347 347 349 350 349 347 345 344 345 346
231 228 220 230 277 26 33 27 23 193 203 211 223 232 236 238 237 238 239 239 239 238 238 240 240 236 236 235 234 239 244 250 251 252 256 263 269 272 271 268 264 260 258 258 258 258 260 262 264 269 274 279 282 284 288 289 297 306 303 307 320 328 331 335 339 336 334 334 338 343 344 346 346 345 344 343 344 346 347 345 344 343 343 344 344
231 233 231 241 265 277 17 18 15 337 201 205 220 223 230 236 237 236 235 235 235 235 237 239 240 238 237 237 236 239 245 249 251 252 253 256 262 265 268 268 265 260 258 257 257 258 258 260 263 269 275 277 279 281 285 287 297 304 297 304 319 326 327 328 326 320 321 331 339 342 342 343 344 342 341 341 342 343 344 342 341 341 343 343 341
244 243 243 247 254 251 263 342 13 9 262 211 218 218 224 234 236 236 234 232 231 232 236 239 240 240 240 240 239 241 246 249 250 252 251 252 254 258 262 265 265 260 259 257 256 256 256 260 264 269 274 275 277 282 284 286 295 298 293 304 318 322 320 315 308 309 322 335 338 337 338 340 342 340 339 339 339 340 340 340 340 341 341 339 337
262 249 248 250 251 255 254 257 285 2 333 252 220 215 219 228 234 236 233 228 227 229 234 238 241 243 244 243 241 242 245 248 250 250 250 251 252 255 258 263 266 263 258 255 254 255 258 261 264 267 270 273 278 284 287 291 296 295 296 307 318 318 309 300 299 309 325 333 333 333 335 337 339 339 337 336 336 337 339 339 340 339 337 336 336
266 253 250 250 250 257 262 255 244 240 299 297 217 207 209 220 231 235 232 227 224 227 232 237 241 245 247 246 244 244 247 251 251 250 249 251 254 255 256 260 265 265 259 255 255 257 259 260 262 264 266 271 279 286 292 299 299 298 306 315 317 309 297 294 300 313 326 329 329 330 333 335 337 337 335 333 334 337 339 338 337 335 335 336 337
268 260 249 246 250 257 264 259 240 225 243 316 232 191 198 211 221 228 230 227 223 225 230 235 241 246 249 250 249 249 251 254 253 252 251 252 255 255 255 260 266 267 261 256 256 256 256 259 261 263 266 273 280 288 295 303 301 301 310 312 306 299 291 295 304 315 323 324 325 328 331 333 335 335 333 332 334 337 338 336 334 334 336 338 337
270 261 245 243 249 254 262 260 242 226 229 267 236 177 193 204 209 218 222 221 220 224 230 236 243 248 251 253 254 253 252 255 256 255 254 254 254 252 254 261 265 264 260 257 254 253 254 256 260 263 267 274 280 287 295 300 299 299 304 302 298 293 291 297 305 313 318 321 324 327 330 331 332 332 332 333 334 335 335 335 335 336 337 338 336
263 252 242 239 248 254 256 255 244 230 230 230 203 179 191 202 206 213 211 208 214 223 234 243 250 254 255 257 256 256 256 256 260 259 257 256 253 251 255 261 263 262 260 258 255 253 253 254 258 263 268 273 277 284 291 293 295 297 300 298 292 289 291 297 305 313 319 321 324 327 328 328 329 330 332 333 333 333 333 335 337 338 337 336 336
255 247 240 239 245 251 249 248 247 237 234 230 205 191 198 207 213 214 207 203 209 223 237 246 255 259 259 260 258 259 259 258 261 261 259 256 251 250 256 261 262 263 263 259 255 253 253 256 259 263 266 268 274 280 286 292 297 298 294 287 282 285 293 301 309 318 321 321 324 326 325 325 327 330 332 334 333 333 334 337 338 337 336 336 337
242 235 231 234 236 238 241 245 249 245 240 234 222 210 215 220 222 219 211 206 205 219 235 245 253 260 262 260 259 261 260 259 260 260 259 253 247 251 257 259 260 262 261 257 254 255 258 260 261 262 261 263 271 276 283 293 298 296 287 276 275 285 298 307 315 320 320 321 324 324 322 323 327 330 334 335 335 335 336 338 338 337 336 337 339
212 215 224 227 226 227 235 245 254 252 248 243 236 232 233 240 237 232 222 206 206 217 229 243 250 258 261 258 260 262 260 259 260 260 259 251 245 249 254 255 257 260 258 255 255 258 263 263 260 258 256 259 266 270 278 284 288 286 278 272 277 290 302 310 315 316 316 319 322 321 320 322 327 330 334 335 335 336 337 338 338 337 338 339 340
204 212 224 228 229 231 235 248 264 265 261 256 247 245 246 255 256 250 235 207 212 220 227 239 249 258 259 258 260 263 263 262 261 262 260 251 245 247 250 252 257 260 257 255 257 260 263 261 257 255 251 253 259 261 268 274 278 278 273 273 281 293 303 309 311 311 314 319 319 318 319 322 327 330 332 333 334 336 337 338 338 338 339 339 338
213 209 215 230 238 244 249 263 279 284 280 268 259 256 253 260 268 262 245 226 227 230 233 238 246 255 257 259 261 262 264 263 262 261 258 250 245 247 251 254 258 261 259 258 261 261 261 259 257 253 246 248 255 256 260 268 273 273 272 275 282 294 302 304 306 311 317 320 319 317 318 323 326 327 328 331 333 335 337 337 337 338 337 336 336
218 208 211 232 246 256 266 285 293 295 291 277 269 265 259 260 266 263 252 249 252 252 242 235 240 250 257 261 262 262 260 259 258 256 251 245 244 248 252 256 259 263 263 262 263 262 261 259 257 250 243 249 257 256 259 265 268 272 274 277 286 298 301 302 308 315 320 322 319 316 319 323 324 324 327 330 332 334 335 335 335 335 335 335 334
219 215 216 229 242 251 265 290 298 293 290 286 280 272 264 260 261 260 258 260 265 260 241 232 238 249 256 260 261 259 256 254 255 252 247 242 244 249 252 256 260 264 266 266 265 263 262 260 257 249 242 250 258 255 259 264 269 274 274 277 290 300 302 306 313 318 322 321 319 316 319 321 322 325 328 330 331 332 333 332 332 332 332 333 333
218 219 218 220 227 236 256 286 295 286 283 289 289 279 268 262 261 259 258 262 263 254 238 231 240 249 254 257 258 256 253 251 251 248 244 243 247 252 253 255 259 264 267 268 266 263 264 263 262 252 242 249 258 254 256 263 269 272 273 282 295 301 304 310 315 319 321 318 316 315 316 320 325 327 327 328 329 329 329 328 328 329 330 331 331
218 220 218 216 221 233 258 282 291 282 279 286 292 290 279 270 266 263 260 262 260 249 237 234 241 249 253 255 255 253 251 250 249 247 245 246 250 252 253 256 260 264 267 269 266 264 265 265 264 255 245 250 258 252 251 259 266 270 277 291 298 301 304 309 314 316 317 315 313 313 317 324 327 325 325 325 324 324 324 324 325 326 327 328 328
217 220 221 221 226 241 260 273 281 283 284 285 287 292 288 278 271 269 265 259 255 247 238 239 244 250 253 253 254 251 249 249 248 247 245 246 248 250 253 257 261 265 268 268 266 263 264 264 263 256 250 253 254 249 250 259 268 276 288 296 298 298 302 306 311 313 313 311 310 314 321 326 324 321 320 320 318 318 320 321 323 323 323 324 326
214 219 225 230 235 246 256 263 272 284 293 291 283 283 286 280 271 267 262 253 252 253 247 245 248 251 252 252 253 252 249 248 246 243 241 243 245 248 252 257 261 263 265 265 263 262 263 263 260 258 255 252 250 250 252 261 273 286 293 292 291 293 298 305 309 311 309 310 311 316 321 322 319 315 313 313 312 315 317 319 320 319 320 322 324
214 221 229 234 238 245 250 257 268 284 297 295 283 279 278 271 264 262 260 256 254 254 249 246 250 253 253 253 253 253 251 246 243 241 241 242 244 247 250 254 257 259 263 263 260 261 262 260 258 258 256 249 250 255 259 267 278 284 283 281 284 289 297 305 307 306 308 310 312 313 315 315 313 310 308 308 310 313 316 317 317 318 319 321 323
214 220 227 233 236 243 249 254 266 285 300 297 287 281 270 259 259 264 266 264 258 252 251 252 257 257 256 256 256 255 253 247 242 241 242 243 244 246 249 251 255 258 262 262 259 260 260 258 256 254 251 248 253 261 262 265 270 271 271 273 280 289 297 302 300 301 306 308 307 307 308 309 308 307 307 308 310 312 314 315 317 317 318 320 321
215 220 224 230 235 243 251 253 262 280 293 296 289 277 260 255 265 275 279 277 265 256 257 259 260 259 256 258 258 257 255 248 242 241 241 243 244 246 248 250 253 257 261 263 262 261 259 256 253 249 247 251 258 260 257 257 260 263 267 270 278 288 295 296 295 298 301 301 301 302 304 305 306 305 306 307 309 312 314 315 317 317 318 319 320
220 224 225 230 236 243 248 250 256 266 275 287 290 277 263 267 278 283 289 290 276 262 261 261 254 250 249 251 252 251 251 247 243 241 242 245 245 245 248 250 253 256 258 261 263 262 259 254 251 248 247 255 258 256 255 257 258 259 264 270 277 285 289 290 292 296 296 296 298 299 301 304 304 304 305 307 309 312 314 316 317 317 317 318 320
223 229 231 233 235 237 240 244 251 258 266 276 283 279 271 273 277 281 289 295 284 265 256 253 246 241 239 237 240 241 243 244 241 241 244 245 244 244 246 249 253 255 257 260 263 264 260 252 249 249 248 253 256 255 257 259 259 258 262 269 277 283 286 288 291 292 292 294 296 297 299 302 303 304 305 307 310 313 315 316 316 316 317 318 321
224 231 236 235 234 235 237 242 248 254 262 269 275 276 273 271 272 276 285 293 288 267 252 251 246 243 241 238 239 241 242 243 242 242 243 243 244 244 247 250 253 256 258 260 262 262 258 250 247 249 250 251 254 256 258 258 258 259 261 268 277 283 286 289 290 289 291 293 293 295 298 301 303 303 304 308 312 314 315 316 316 316 317 319 321
227 233 238 240 241 240 240 243 248 253 258 264 269 273 273 271 271 274 279 288 288 268 250 248 245 244 246 244 244 245 245 246 245 243 241 242 245 248 250 251 251 255 257 259 262 258 248 242 243 247 249 250 252 253 255 256 256 257 262 270 278 282 286 288 287 287 289 290 291 294 297 299 302 303 305 310 314 315 316 317 316 316 317 319 321
228 235 241 242 241 241 242 244 248 253 255 258 266 272 273 270 270 273 277 285 288 270 250 245 245 247 250 250 250 249 247 248 245 240 239 242 247 250 251 251 251 254 256 260 264 253 234 232 237 240 243 243 245 249 252 254 252 255 263 273 279 283 286 286 284 284 284 286 289 292 295 298 300 303 308 312 314 315 317 317 316 316 318 319 321
229 236 241 240 237 238 241 244 247 253 254 256 263 269 271 269 269 271 275 283 289 276 253 246 247 249 253 255 255 252 249 247 242 238 238 242 246 249 249 250 250 252 255 258 260 245 227 228 234 236 238 239 241 246 248 248 249 255 265 275 280 283 284 282 281 280 281 284 287 290 293 297 300 304 309 312 314 316 317 316 315 316 317 318 320
233 237 240 239 236 237 241 244 247 251 255 257 262 268 270 268 267 268 273 283 291 278 254 247 249 251 254 256 252 248 244 241 238 237 239 242 245 247 248 249 249 250 252 253 251 239 228 228 231 235 239 240 240 242 243 244 248 256 267 275 279 281 282 280 278 278 279 282 284 288 293 296 300 306 310 312 314 316 315 314 314 315 316 318 320
Height
3182 3183 3183 3182 3183 3184 3184 3184 3185 3185 3185 3186 3186 3186 3187 3187 3187 3187 3187 3187 3186 3186 3186 3185 3184 3184 3183 3183 3183 3183 3184 3184 3184 3184 3185 3185 3185 3185 3185 3185 3185 3186 3186 3186 3186 3187 3187 3187 3187 3187 3188 3188 3188 3188 3189 3189 3189 3189 3189 3189 3189 3189 3189 3188 3188 3187 3187 3186 3186 3185 3185 3184 3184 3183 3182 3181 3180 3179 3178 3178 3177 3177 3176 3176 3175
3183 3183 3183 3183 3183 3184 3185 3185 3185 3185 3186 3186 3186 3187 3187 3187 3187 3187 3187 3187 3187 3187 3186 3186 3185 3185 3184 3183 3183 3184 3184 3184 3184 3185 3185 3185 3185 3185 3185 3186 3186 3186 3187 3187 3187 3187 3187 3188 3188 3188 3188 3189 3189 3189 3189 3189 3190 3190 3190 3190 3190 3189 3189 3189 3188 3187 3187 3186 3186 3185 3185 3184 3184 3183 3182 3181 3180 3179 3179 3178 3178 3177 3177 3176 3175
3183 3183 3184 3183 3184 3185 3185 3185 3186 3186 3186 3186 3187 3187 3187 3187 3188 3188 3188 3188 3188 3187 3187 3186 3186 3185 3185 3184 3184 3184 3184 3184 3185 3185 3185 3186 3186 3186 3186 3186 3186 3187 3187 3187 3187 3187 3188 3188 3188 3189 3189 3189 3189 3189 3190 3190 3190 3191 3191 3191 3190 3190 3189 3189 3188 3188 3187 3186 3186 3185 3185 3184 3183 3183 3182 3181 3180 3179 3178 3178 3178 3177 3177 3176 3175
3183 3184 3184 3184 3184 3185 3186 3186 3186 3186 3187 3187 3187 3187 3188 3188 3188 3188 3188 3188 3188 3188 3188 3187 3187 3186 3185 3185 3184 3184 3184 3185 3185 3185 3186 3186 3186 3186 3186 3187 3187 3187 3187 3188 3188 3188 3188 3189 3189 3189 3189 3190 3190 3190 3190 3190 3191 3191 3192 3192 3191 3190 3190 3189 3188 3188 3187 3187 3186 3186 3185 3184 3183 3183 3182 3181 3180 3179 3178 3177 3177 3176 3175 3175 3174
3183 3184 3185 3185 3185 3186 3186 3186 3186 3187 3187 3187 3188 3188 3188 3188 3188 3188 3189 3189 3189 3189 3189 3188 3187 3187 3186 3185 3185 3185 3185 3185 3185 3186 3186 3186 3187 3187 3187 3187 3188 3188 3188 3188 3189 3189 3189 3189 3190 3190 3190 3190 3190 3190 3191 3191 3191 3192 3192 3192 3191 3191 3190 3189 3189 3188 3188 3187 3187 3186 3185 3184 3184 3183 3182 3181 3180 3179 3178 3177 3176 3175 3174 3174 3174
3183 3184 3185 3185 3186 3186 3186 3186 3187 3187 3187 3187 3188 3188 3188 3189 3189 3189 3189 3189 3189 3189 3189 3188 3188 3187 3187 3186 3185 3185 3185 3185 3186 3186 3187 3187 3187 3187 3188 3188 3188 3188 3188 3189 3189 3189 3189 3190 3190 3190 3191 3191 3191 3191 3191 3192 3192 3192 3192 3192 3192 3191 3190 3190 3189 3189 3188 3188 3187 3186 3186 3185 3184 3183 3182 3181 3180 3179 3178 3177 3176 3176 3175 3174 3174
3183 3184 3185 3185 3186 3186 3186 3187 3187 3187 3187 3188 3188 3188 3189 3189 3189 3189 3190 3190 3190 3190 3190 3189 3189 3188 3187 3187 3186 3186 3186 3186 3186 3187 3187 3187 3187 3188 3188 3188 3189 3189 3189 3189 3190 3190 3190 3190 3191 3191 3191 3191 3191 3192 3192 3192 3192 3193 3193 3193 3192 3192 3191 3190 3189 3189 3188 3188 3187 3187 3186 3185 3184 3184 3183 3182 3180 3179 3178 3178 3177 3177 3176 3175 3175
3182 3183 3184 3185 3185 3186 3186 3187 3187 3187 3188 3188 3188 3189 3189 3189 3189 3190 3190 3190 3190 3190 3190 3190 3189 3188 3188 3187 3187 3187 3186 3186 3187 3187 3187 3188 3188 3188 3188 3189 3189 3189 3190 3190 3190 3190 3191 3191 3191 3191 3191 3192 3192 3192 3192 3193 3193 3193 3193 3193 3193 3192 3191 3191 3190 3189 3189 3188 3188 3187 3187 3186 3185 3184 3183 3182 3181 3181 3180 3179 3178 3178 3177 3176 3175
3182 3183 3184 3184 3185 3186 3186 3187 3187 3187 3188 3188 3188 3189 3189 3189 3190 3190 3190 3190 3190 3190 3190 3190 3189 3189 3188 3188 3188 3187 3187 3187 3187 3188 3188 3188 3188 3188 3189 3189 3190 3190 3190 3191 3191 3191 3191 3191 3191 3191 3192 3192 3192 3192 3193 3193 3194 3194 3194 3194 3193 3193 3192 3191 3191 3190 3189 3189 3188 3188 3188 3187 3186 3185 3184 3183 3182 3182 3181 3180 3179 3179 3178 3177 3176
3182 3183 3183 3184 3184 3185 3186 3186 3187 3187 3188 3188 3188 3189 3189 3190 3190 3190 3190 3191 3190 3190 3190 3190 3190 3189 3189 3189 3188 3188 3188 3188 3188 3188 3188 3189 3189 3189 3189 3190 3190 3191 3191 3191 3191 3192 3192 3192 3192 3192 3192 3192 3192 3193 3193 3194 3194 3195 3194 3194 3193 3193 3192 3192 3191 3190 3190 3189 3189 3189 3188 3187 3187 3186 3185 3184 3183 3183 3182 3181 3180 3179 3178 3177 3176
3182 3182 3183 3183 3184 3184 3185 3186 3186 3187 3188 3188 3188 3189 3189 3190 3190 3190 3191 3191 3191 3190 3190 3190 3190 3190 3189 3189 3189 3189 3189 3189 3189 3189 3189 3189 3189 3189 3190 3190 3191 3191 3192 3192 3192 3192 3192 3192 3192 3192 3192 3193 3193 3193 3194 3194 3195 3195 3195 3195 3194 3193 3193 3192 3192 3191 3191 3190 3190 3189 3189 3188 3187 3187 3186 3185 3184 3184 3182 3181 3180 3179 3178 3177 3176
3181 3182 3182 3183 3183 3184 3184 3185 3186 3187 3187 3188 3188 3189 3189 3190 3190 3190 3191 3191 3190 3190 3190 3190 3190 3190 3190 3190 3190 3190 3189 3189 3189 3189 3189 3189 3190 3190 3190 3191 3191 3192 3192 3193 3193 3193 3193 3192 3192 3193 3193 3193 3194 3194 3194 3195 3196 3196 3196 3195 3194 3194 3193 3192 3192 3192 3191 3191 3190 3190 3190 3189 3188 3187 3186 3186 3185 3184 3183 3182 3181 3180 3178 3177 3176
3181 3181 3182 3182 3183 3183 3184 3185 3186 3186 3187 3188 3188 3189 3189 3189 3190 3190 3191 3191 3190 3190 3190 3190 3190 3190 3190 3190 3190 3190 3190 3190 3190 3190 3190 3190 3190 3190 3191 3191 3192 3192 3193 3193 3193 3193 3193 3193 3193 3193 3194 3194 3194 3194 3195 3195 3196 3196 3196 3196 3195 3194 3193 3193 3192 3192 3191 3191 3191 3190 3190 3189 3188 3188 3187 3186 3185 3184 3183 3182 3181 3180 3178 3177 3176
3181 3181 3182 3182 3183 3183 3184 3184 3185 3186 3187 3187 3188 3188 3189 3189 3189 3190 3190 3190 3190 3190 3190 3190 3190 3190 3190 3190 3190 3190 3190 3190 3190 3190 3190 3190 3191 3191 3191 3192 3192 3193 3193 3194 3194 3194 3194 3194 3194 3194 3194 3194 3195 3195 3195 3196 3196 3196 3196 3196 3195 3195 3194 3193 3193 3192 3192 3191 3191 3190 3190 3189 3189 3188 3187 3187 3185 3185 3184 3183 3181 3180 3179 3178 3177
3181 3181 3181 3182 3182 3182 3183 3184 3184 3185 3186 3187 3187 3188 3188 3188 3189 3190 3190 3190 3190 3190 3190 3190 3190 3190 3190 3191 3191 3191 3191 3191 3191 3191 3191 3191 3191 3191 3192 3192 3193 3193 3194 3194 3194 3194 3194 3194 3194 3194 3195 3195 3195 3195 3195 3196 3197 3196 3196 3195 3195 3195 3194 3194 3193 3193 3193 3192 3191 3191 3190 3190 3189 3189 3188 3187 3186 3185 3184 3183 3182 3181 3180 3179 3177
3180 3181 3181 3182 3182 3182 3182 3183 3184 3185 3185 3186 3187 3187 3187 3188 3188 3189 3189 3190 3190 3190 3190 3190 3190 3190 3190 3191 3191 3191 3191 3191 3191 3191 3191 3191 3191 3192 3192 3193 3193 3194 3194 3194 3194 3195 3195 3195 3195 3195 3195 3195 3195 3195 3196 3196 3197 3196 3196 3195 3195 3194 3194 3194 3194 3194 3193 3192 3192 3191 3191 3190 3190 3189 3188 3187 3186 3185 3184 3183 3182 3181 3180 3179 3177
3180 3180 3180 3181 3182 3182 3182 3182 3183 3184 3185 3185 3186 3186 3187 3187 3188 3188 3189 3189 3189 3189 3189 3190 3190 3190 3190 3191 3191 3191 3191 3191 3191 3191 3191 3191 3191 3192 3192 3193 3194 3194 3194 3195 3195 3195 3195 3195 3195 3195 3196 3196 3195 3195 3196 3197 3197 3197 3196 3195 3195 3194 3194 3194 3194 3194 3193 3193 3192 3192 3191 3190 3190 3189 3188 3187 3186 3185 3184 3183 3182 3181 3180 3178 3177
3179 3180 3180 3181 3181 3181 3181 3182 3182 3183 3184 3184 3185 3185 3186 3186 3187 3188 3188 3188 3188 3189 3189 3189 3189 3189 3190 3191 3191 3191 3191 3191 3192 3192 3192 3192 3192 3192 3193 3193 3194 3194 3195 3195 3195 3195 3196 3196 3196 3196 3196 3196 3196 3196 3196 3197 3197 3197 3196 3195 3195 3194 3194 3194 3194 3194 3193 3193 3192 3192 3191 3190 3189 3189 3188 3187 3186 3185 3184 3183 3182 3180 3179 3178 3176
3179 3179 3179 3180 3181 3181 3181 3181 3181 3182 3183 3184 3184 3184 3185 3186 3186 3187 3187 3188 3188 3188 3189 3189 3189 3189 3190 3190 3191 3191 3191 3191 3192 3192 3192 3192 3192 3192 3193 3193 3194 3194 3195 3195 3195 3196 3196 3196 3196 3196 3196 3196 3196 3196 3196 3197 3197 3196 3196 3195 3195 3194 3194 3194 3194 3194 3193 3193 3192 3192 3191 3190 3189 3189 3188 3187 3186 3185 3184 3183 3181 3180 3179 3177 3176
3178 3178 3179 3180 3180 3180 3180 3180 3181 3181 3182 3183 3183 3184 3184 3185 3185 3186 3187 3187 3187 3188 3188 3188 3188 3189 3190 3190 3190 3191 3191 3191 3192 3192 3193 3193 3193 3193 3193 3193 3194 3194 3195 3195 3195 3196 3196 3196 3196 3196 3196 3196 3196 3196 3197 3197 3197 3196 3196 3195 3195 3195 3195 3195 3195 3194 3194 3193 3192 3192 3191 3190 3190 3189 3188 3187 3186 3185 3184 3183 3181 3180 3178 3177 3176
3177 3178 3179 3179 3179 3179 3179 3179 3180 3181 3181 3182 3182 3183 3183 3184 3185 3185 3186 3186 3186 3187 3188 3188 3188 3189 3189 3190 3190 3190 3191 3191 3192 3192 3193 3193 3193 3193 3193 3193 3193 3194 3195 3195 3195 3196 3196 3196 3196 3196 3196 3196 3195 3196 3197 3197 3196 3196 3196 3195 3195 3195 3195 3195 3195 3194 3193 3193 3192 3192 3191 3191 3190 3189 3188 3186 3186 3185 3184 3182 3181 3180 3178 3177 3176
3176 3177 3178 3178 3179 3178 3179 3179 3179 3180 3180 3181 3182 3182 3183 3183 3184 3184 3185 3185 3186 3187 3187 3187 3187 3188 3189 3189 3190 3190 3191 3191 3191 3192 3192 3192 3193 3193 3193 3193 3193 3194 3194 3195 3195 3195 3196 3196 3196 3196 3196 3195 3195 3196 3196 3196 3196 3196 3195 3195 3195 3195 3195 3195 3194 3194 3193 3193 3193 3192 3191 3190 3189 3188 3187 3186 3185 3184 3183 3182 3181 3180 3179 3177 3176
3176 3177 3177 3177 3178 3178 3178 3178 3179 3179 3180 3180 3181 3181 3182 3183 3183 3183 3183 3184 3185 3186 3186 3186 3187 3188 3188 3188 3189 3190 3190 3191 3191 3192 3192 3192 3192 3192 3192 3192 3193 3193 3194 3194 3195 3195 3195 3195 3195 3195 3195 3195 3195 3196 3196 3196 3196 3196 3195 3195 3195 3195 3195 3195 3194 3194 3193 3193 3193 3192 3191 3190 3189 3188 3186 3186 3184 3184 3183 3182 3181 3180 3179 3177 3176
3176 3176 3177 3176 3177 3177 3178 3178 3178 3179 3179 3180 3180 3181 3181 3182 3182 3182 3182 3183 3184 3185 3185 3185 3186 3187 3187 3188 3189 3189 3190 3190 3191 3191 3192 3192 3192 3192 3192 3192 3192 3193 3194 3194 3194 3195 3195 3195 3195 3195 3195 3194 3195 3196 3196 3196 3196 3196 3195 3195 3195 3195 3195 3194 3194 3194 3193 3193 3192 3191 3190 3190 3189 3188 3186 3185 3184 3184 3183 3182 3181 3179 3178 3177 3176
3175 3176 3176 3176 3176 3177 3177 3178 3178 3178 3179 3179 3180 3180 3181 3181 3181 3181 3181 3182 3183 3184 3184 3185 3186 3186 3186 3187 3188 3189 3189 3189 3190 3190 3191 3191 3191 3191 3191 3192 3192 3192 3193 3193 3194 3194 3194 3194 3194 3194 3194 3194 3195 3195 3196 3196 3196 3195 3195 3195 3195 3195 3194 3194 3194 3193 3193 3192 3192 3191 3190 3189 3188 3187 3186 3185 3184 3183 3183 3182 3180 3179 3178 3177 3175
3174 3175 3175 3175 3176 3176 3176 3177 3177 3178 3178 3179 3179 3180 3180 3180 3180 3180 3180 3181 3182 3183 3184 3184 3185 3185 3186 3187 3187 3188 3188 3189 3189 3190 3190 3190 3190 3190 3190 3191 3191 3192 3192 3192 3193 3193 3193 3193 3193 3194 3193 3193 3194 3195 3195 3195 3195 3195 3194 3195 3195 3194 3194 3194 3193 3193 3192 3192 3191 3191 3190 3189 3188 3187 3186 3184 3184 3183 3182 3181 3180 3179 3177 3176 3174
3173 3173 3174 3174 3175 3175 3176 3177 3177 3178 3178 3178 3179 3179 3179 3179 3179 3179 3179 3180 3181 3182 3183 3183 3184 3185 3185 3186 3187 3187 3187 3188 3188 3189 3189 3189 3189 3189 3189 3190 3190 3191 3191 3191 3192 3192 3192 3192 3193 3193 3193 3193 3194 3195 3195 3195 3195 3194 3194 3194 3194 3194 3194 3193 3193 3192 3192 3191 3191 3190 3189 3188 3187 3186 3185 3184 3184 3183 3182 3180 3179 3178 3177 3175 3173
3171 3172 3172 3173 3174 3174 3175 3176 3177 3177 3178 3178 3178 3178 3179 3178 3178 3178 3179 3179 3180 3181 3182 3183 3183 3184 3185 3185 3186 3186 3187 3187 3187 3188 3188 3188 3188 3188 3189 3189 3189 3190 3190 3190 3191 3191 3191 3191 3192 3192 3192 3192 3193 3194 3194 3194 3194 3194 3194 3194 3194 3194 3193 3193 3192 3192 3191 3191 3190 3190 3189 3188 3187 3186 3185 3184 3183 3182 3181 3180 3179 3177 3175 3174 3172
3170 3170 3171 3172 3172 3173 3174 3175 3176 3176 3177 3177 3178 3178 3178 3178 3177 3177 3178 3179 3180 3181 3181 3182 3183 3183 3184 3185 3185 3185 3186 3186 3186 3187 3187 3187 3187 3187 3188 3188 3189 3189 3189 3189 3189 3190 3190 3190 3191 3191 3192 3192 3193 3193 3194 3193 3193 3193 3193 3194 3193 3193 3193 3192 3192 3191 3191 3190 3190 3189 3188 3187 3186 3185 3185 3184 3182 3182 3181 3180 3178 3176 3174 3173 3171
3168 3169 3170 3170 3171 3172 3173 3174 3175 3176 3176 3176 3177 3177 3177 3177 3177 3177 3177 3178 3179 3180 3181 3181 3182 3183 3183 3183 3184 3184 3185 3185 3185 3186 3186 3186 3186 3186 3187 3187 3188 3188 3188 3188 3188 3189 3189 3189 3190 3191 3191 3191 3192 3193 3193 3193 3192 3192 3193 3193 3193 3193 3192 3192 3191 3191 3190 3190 3189 3188 3187 3186 3186 3185 3184 3183 3182 3181 3180 3178 3177 3175 3173 3172 3170
3167 3168 3169 3169 3170 3171 3172 3173 3174 3175 3175 3176 3176 3177 3177 3177 3176 3176 3177 3178 3179 3179 3180 3181 3181 3182 3182 3182 3183 3183 3184 3184 3184 3185 3185 3185 3185 3185 3186 3186 3186 3186 3187 3187 3187 3188 3188 3188 3189 3190 3190 3191 3191 3192 3192 3192 3192 3192 3192 3192 3192 3192 3192 3191 3191 3190 3190 3189 3188 3188 3187 3186 3185 3184 3183 3182 3181 3180 3179 3177 3175 3173 3172 3171 3169
3166 3167 3168 3168 3169 3170 3171 3172 3172 3173 3174 3175 3176 3177 3177 3176 3176 3176 3176 3177 3178 3178 3179 3180 3180 3180 3181 3181 3181 3182 3183 3183 3183 3184 3184 3184 3184 3184 3185 3185 3185 3185 3186 3186 3186 3187 3187 3188 3188 3189 3189 3190 3190 3191 3191 3191 3191 3191 3191 3191 3192 3192 3191 3191 3190 3190 3189 3188 3188 3187 3186 3185 3184 3183 3182 3181 3180 3179 3177 3176 3174 3172 3171 3169 3168
3164 3166 3167 3168 3168 3169 3170 3170 3171 3172 3173 3174 3175 3176 3176 3176 3175 3175 3176 3176 3177 3177 3178 3179 3179 3179 3180 3180 3180 3181 3181 3182 3182 3183 3183 3183 3183 3184 3184 3184 3184 3184 3185 3185 3185 3186 3186 3187 3187 3188 3189 3189 3189 3190 3190 3190 3190 3190 3190 3190 3191 3191 3191 3190 3190 3189 3188 3188 3187 3186 3185 3184 3183 3182 3181 3180 3179 3177 3176 3174 3173 3171 3170 3168 3167
3162 3164 3165 3166 3167 3168 3169 3169 3170 3171 3172 3173 3174 3175 3175 3175 3175 3175 3175 3175 3176 3176 3177 3177 3178 3178 3178 3179 3179 3180 3180 3180 3181 3181 3182 3182 3182 3183 3183 3183 3183 3183 3184 3184 3184 3185 3185 3186 3187 3187 3188 3188 3189 3189 3189 3189 3189 3189 3189 3189 3190 3190 3190 3189 3189 3188 3188 3187 3186 3185 3184 3183 3182 3180 3180 3179 3178 3176 3175 3173 3172 3170 3169 3167 3166
3161 3162 3163 3165 3166 3167 3168 3168 3169 3170 3171 3172 3173 3173 3174 3174 3174 3174 3174 3174 3175 3175 3176 3176 3177 3177 3177 3177 3178 3178 3179 3179 3179 3180 3180 3181 3181 3182 3182 3182 3182 3182 3183 3183 3184 3184 3185 3185 3186 3186 3187 3187 3188 3188 3188 3188 3188 3188 3188 3189 3189 3189 3189 3189 3188 3187 3187 3186 3185 3184 3183 3182 3181 3180 3179 3178 3176 3175 3173 3172 3171 3169 3168 3166 3165
3160 3160 3161 3163 3164 3165 3166 3167 3168 3168 3170 3171 3172 3172 3172 3172 3173 3173 3173 3173 3174 3174 3174 3175 3175 3176 3176 3176 3177 3177 3177 3178 3178 3179 3180 3180 3180 3180 3181 3181 3181 3181 3181 3182 3183 3183 3184 3184 3185 3185 3186 3186 3187 3187 3187 3187 3187 3187 3187 3188 3188 3188 3188 3187 3187 3186 3186 3185 3184 3183 3182 3181 3180 3179 3178 3177 3175 3174 3172 3171 3170 3168 3167 3166 3164
3158 3159 3159 3161 3162 3164 3165 3166 3166 3167 3168 3169 3170 3171 3171 3171 3171 3172 3172 3172 3172 3173 3173 3173 3174 3174 3175 3175 3175 3176 3176 3176 3177 3177 3178 3179 3179 3179 3180 3180 3179 3180 3180 3181 3182 3182 3183 3183 3184 3184 3185 3185 3186 3186 3186 3186 3186 3186 3187 3187 3187 3187 3187 3186 3185 3185 3184 3183 3183 3182 3181 3180 3179 3178 3177 3175 3174 3173 3171 3170 3169 3168 3166 3165 3164
3157 3157 3158 3159 3161 3162 3163 3164 3164 3165 3166 3167 3168 3169 3169 3170 3170 3171 3171 3171 3171 3172 3172 3172 3173 3173 3174 3174 3174 3174 3175 3175 3175 3176 3177 3178 3178 3178 3178 3178 3178 3178 3179 3180 3180 3181 3181 3182 3182 3183 3184 3184 3184 3185 3185 3185 3185 3185 3185 3186 3186 3185 3185 3185 3184 3183 3183 3182 3182 3181 3180 3179 3178 3177 3175 3174 3173 3172 3170 3169 3168 3167 3166 3164 3163
3155 3155 3156 3156 3158 3160 3161 3162 3163 3163 3164 3165 3166 3167 3168 3168 3169 3169 3169 3170 3170 3170 3170 3171 3171 3172 3172 3172 3173 3173 3173 3174 3174 3175 3176 3176 3176 3177 3177 3176 3177 3177 3177 3178 3179 3179 3180 3180 3181 3181 3182 3183 3183 3183 3184 3184 3184 3184 3184 3184 3184 3184 3184 3184 3183 3182 3182 3181 3181 3180 3179 3177 3176 3175 3174 3173 3172 3171 3170 3169 3167 3166 3165 3164 3162
3152 3153 3154 3154 3156 3158 3159 3161 3161 3162 3162 3163 3164 3165 3165 3166 3167 3168 3168 3168 3169 3169 3169 3169 3170 3170 3171 3171 3171 3172 3172 3172 3173 3174 3174 3174 3175 3175 3175 3175 3175 3176 3176 3177 3178 3178 3178 3179 3179 3180 3180 3181 3181 3182 3183 3183 3183 3182 3183 3182 3183 3183 3183 3183 3182 3182 3181 3180 3179 3178 3177 3176 3175 3174 3173 3172 3171 3170 3169 3168 3167 3165 3164 3163 3162
3149 3151 3151 3152 3154 3156 3158 3159 3160 3160 3161 3161 3162 3163 3163 3164 3165 3166 3166 3167 3167 3167 3168 3168 3169 3169 3169 3169 3169 3170 3171 3171 3172 3172 3172 3173 3173 3174 3174 3174 3174 3174 3175 3175 3176 3176 3177 3177 3178 3178 3179 3179 3180 3180 3181 3181 3181 3181 3181 3181 3182 3182 3182 3182 3181 3180 3180 3179 3178 3176 3175 3175 3174 3173 3173 3172 3171 3170 3168 3167 3166 3165 3163 3162 3161
3146 3148 3149 3150 3152 3154 3156 3157 3158 3158 3159 3159 3160 3161 3162 3163 3163 3164 3164 3165 3165 3166 3166 3167 3167 3167 3167 3167 3168 3168 3169 3170 3170 3171 3171 3171 3172 3172 3172 3172 3172 3173 3173 3174 3174 3175 3175 3176 3176 3177 3177 3178 3178 3179 3180 3180 3180 3180 3180 3180 3180 3181 3180 3180 3180 3179 3178 3177 3176 3175 3175 3174 3173 3173 3172 3171 3170 3168 3167 3166 3165 3163 3162 3161 3160
3144 3145 3146 3148 3149 3152 3153 3154 3155 3156 3157 3157 3158 3159 3160 3161 3162 3162 3163 3163 3164 3164 3164 3164 3165 3165 3166 3166 3166 3167 3167 3168 3169 3169 3170 3170 3170 3170 3171 3171 3171 3171 3172 3172 3173 3173 3174 3174 3175 3175 3176 3176 3177 3178 3178 3178 3178 3179 3179 3179 3179 3179 3179 3179 3178 3178 3177 3177 3176 3175 3174 3173 3172 3171 3170 3169 3168 3167 3166 3165 3163 3162 3161 3159 3158
3140 3142 3144 3145 3147 3149 3151 3152 3153 3154 3155 3155 3156 3157 3158 3159 3160 3161 3161 3162 3162 3162 3163 3163 3163 3164 3164 3164 3165 3165 3166 3166 3167 3167 3168 3168 3169 3169 3169 3169 3169 3170 3170 3170 3171 3171 3172 3173 3173 3174 3174 3175 3176 3177 3177 3177 3178 3178 3178 3178 3178 3178 3178 3178 3177 3177 3176 3176 3175 3174 3173 3172 3171 3170 3169 3168 3167 3165 3164 3163 3162 3160 3159 3158 3156
3137 3139 3141 3143 3145 3147 3148 3150 3151 3152 3153 3154 3154 3155 3156 3157 3158 3159 3160 3161 3161 3161 3161 3161 3162 3162 3162 3163 3163 3163 3164 3164 3165 3166 3166 3166 3167 3167 3167 3167 3168 3168 3169 3169 3169 3170 3170 3171 3172 3172 3173 3174 3174 3175 3176 3176 3177 3177 3177 3177 3177 3177 3177 3177 3176 3175 3175 3175 3174 3173 3172 3171 3170 3169 3168 3167 3165 3164 3163 3162 3160 3159 3157 3156 3155
3135 3137 3139 3141 3143 3144 3146 3148 3149 3150 3151 3152 3152 3153 3154 3155 3156 3158 3158 3159 3159 3160 3160 3160 3160 3160 3160 3160 3161 3161 3162 3163 3163 3164 3164 3165 3165 3165 3165 3166 3166 3167 3167 3168 3168 3169 3169 3170 3170 3171 3172 3172 3173 3173 3174 3174 3175 3175 3176 3176 3176 3176 3175 3175 3174 3174 3174 3173 3173 3172 3170 3169 3168 3167 3166 3165 3164 3163 3161 3160 3158 3157 3155 3154 3153
3133 3135 3136 3137 3140 3141 3143 3145 3146 3148 3149 3149 3150 3151 3152 3153 3155 3156 3157 3157 3158 3158 3158 3158 3158 3158 3158 3158 3159 3160 3160 3161 3161 3162 3162 3163 3163 3163 3164 3164 3165 3165 3165 3166 3167 3167 3168 3168 3169 3169 3170 3170 3171 3172 3172 3173 3173 3174 3174 3174 3175 3174 3174 3173 3173 3172 3172 3171 3171 3170 3169 3168 3167 3166 3165 3164 3163 3162 3160 3158 3156 3155 3153 3153 3152
3131 3132 3133 3135 3137 3138 3140 3142 3144 3145 3146 3147 3148 3149 3150 3151 3153 3154 3155 3155 3156 3156 3156 3156 3155 3155 3156 3156 3157 3158 3158 3159 3160 3160 3160 3161 3161 3161 3162 3163 3163 3163 3164 3164 3165 3165 3166 3167 3167 3168 3168 3169 3170 3170 3171 3171 3172 3173 3173 3173 3173 3173 3172 3172 3171 3171 3170 3170 3169 3168 3167 3166 3165 3164 3163 3163 3162 3160 3158 3157 3155 3153 3152 3151 3151
3127 3128 3131 3133 3134 3136 3138 3140 3141 3142 3143 3144 3145 3146 3147 3149 3150 3151 3152 3153 3153 3153 3153 3153 3153 3153 3154 3155 3155 3156 3157 3157 3158 3158 3159 3159 3159 3160 3160 3161 3161 3162 3162 3162 3163 3163 3164 3165 3166 3167 3167 3168 3168 3169 3170 3170 3171 3171 3171 3172 3171 3171 3171 3170 3170 3169 3169 3168 3168 3167 3166 3165 3164 3163 3162 3161 3160 3158 3157 3155 3153 3152 3151 3150 3150
3123 3125 3127 3130 3131 3133 3135 3137 3138 3139 3140 3141 3142 3143 3145 3146 3148 3148 3149 3150 3150 3151 3151 3151 3152 3152 3152 3153 3154 3154 3155 3156 3156 3156 3157 3157 3157 3158 3158 3159 3160 3160 3160 3160 3161 3162 3162 3164 3165 3166 3166 3167 3167 3168 3169 3169 3170 3170 3170 3170 3170 3169 3169 3168 3168 3167 3167 3167 3166 3165 3164 3163 3162 3161 3160 3159 3158 3157 3155 3154 3152 3151 3150 3149 3148
3119 3120 3123 3126 3129 3130 3132 3134 3135 3136 3137 3138 3139 3140 3142 3144 3145 3146 3147 3147 3148 3148 3149 3149 3150 3150 3151 3151 3152 3152 3153 3154 3154 3154 3155 3155 3156 3156 3157 3157 3157 3158 3158 3159 3160 3160 3161 3162 3164 3164 3164 3165 3166 3166 3167 3168 3168 3168 3168 3168 3168 3167 3167 3167 3166 3166 3165 3165 3164 3164 3163 3162 3161 3160 3158 3157 3156 3155 3153 3152 3151 3150 3149 3148 3147